Terminal Aerodrome Forecast
Issued by NWS

Home | Current Version | Previous Version | Graphics & Text | Print | Product List | Glossary On
Versions: 1 2 3 4 5 6 7 8 9 10 11 12 13 14 15 16 17 18 19 20
000
FTUS42 KMHX 311343 AAA
TAFOAJ
TAF AMD
KOAJ 311343Z 3114/0112 VRB03KT P6SM SCT020
      TEMPO 3114/3116 BKN020
     FM311600 18007KT P6SM SCT040
      AMD LTD TO CLD VIS AND WIND=

USA.gov is the U.S. government's official web portal to all federal, state and local government web resources and services.